EW9273 Weather Reports


time (UTC)temp
C
wind
direction
speed
KPH
gust
KPH
rain 1hr
cm
rain 24hr
cm
rain mn
cm
humidity
%
barometer
mb
20260510153529 26 95 6.4 16.1 0.00 0.00 0.00 71 1010.9
20260510153037 26 138 1.6 8.0 0.00 0.00 0.00 72 1010.9
20260510152526 26 112 1.6 8.0 0.00 0.00 0.00 72 1010.8
20260510152024 26 70 3.2 8.0 0.00 0.00 0.00 72 1010.7
20260510151527 26 85 0.0 9.7 0.00 0.00 0.00 74 1010.6
20260510151022 25 34 1.6 8.0 0.00 0.00 0.00 75 1010.6
20260510150520 25 51 3.2 8.0 0.00 0.00 0.00 75 1010.5
20260510150019 25 37 1.6 8.0 0.00 0.00 0.00 77 1010.5
20260510145520 24 225 0.0 8.0 0.00 0.00 0.00 78 1010.6
20260510145017 24 171 1.6 6.4 0.00 0.00 0.00 80 1010.5
20260510144516 23 188 0.0 8.0 0.00 0.00 0.00 81 1010.4
20260510144016 23 236 1.6 8.0 0.00 0.00 0.00 81 1010.5
20260510143514 23 161 4.8 8.0 0.00 0.00 0.00 81 1010.5
20260510143015 23 165 1.6 12.9 0.00 0.00 0.00 81 1010.4
20260510142513 23 150 4.8 12.9 0.00 0.00 0.00 81 1010.3
20260510142013 23 192 3.2 11.3 0.00 0.00 0.00 82 1010.3
20260510141514 22 138 4.8 16.1 0.00 0.00 0.00 83 1010.3
20260510141012 22 163 4.8 12.9 0.00 0.00 0.00 83 1010.2
20260510140510 22 171 3.2 11.3 0.00 0.00 0.00 84 1010.1
20260510140009 22 223 3.2 9.7 0.00 0.00 0.00 84 1010.0
20260510135508 22 234 4.8 9.7 0.00 0.00 0.00 84 1009.9
20260510135008 22 252 4.8 9.7 0.00 0.00 0.00 84 1009.9
20260510134506 22 155 4.8 14.5 0.00 0.00 0.00 84 1009.9
20260510134005 22 155 8.0 14.5 0.00 0.00 0.00 84 1009.8
20260510133504 21 174 3.2 9.7 0.00 0.00 0.00 84 1009.8
20260510133005 21 239 3.2 12.9 0.00 0.00 0.00 84 1009.7
20260510132504 21 209 4.8 12.9 0.00 0.00 0.00 84 1009.6
20260510132003 21 222 4.8 12.9 0.00 0.00 0.00 84 1009.6
20260510131501 21 188 6.4 12.9 0.00 0.00 0.00 84 1009.5
20260510131100 21 194 6.4 11.3 0.00 0.00 0.00 83 1009.4
20260510130559 21 214 4.8 11.3 0.00 0.00 0.00 83 1009.3
20260510130059 21 198 3.2 9.7 0.00 0.00 0.00 83 1009.3
20260510125557 21 190 3.2 8.0 0.00 0.03 0.00 83 1009.2
20260510125056 21 219 3.2 6.4 0.00 0.03 0.00 83 1009.1
20260510124600 21 233 3.2 6.4 0.00 0.03 0.00 83 1009.1
20260510124056 20 209 3.2 6.4 0.00 0.03 0.00 83 1009.1
20260510123554 20 224 1.6 6.4 0.00 0.03 0.00 83 1009.1
20260510123054 20 224 1.6 6.4 0.00 0.03 0.00 83 1009.1
20260510122552 20 224 0.0 1.6 0.00 0.03 0.00 83 1009.0
20260510122052 20 224 0.0 1.6 0.00 0.03 0.00 83 1009.0
20260510121551 20 224 0.0 3.2 0.00 0.03 0.00 82 1008.9
20260510121052 20 224 0.0 3.2 0.00 0.03 0.00 83 1008.8
20260510120550 20 222 0.0 3.2 0.00 0.03 0.00 82 1008.8
20260510120048 20 198 0.0 1.6 0.00 0.03 0.00 82 1008.7
20260510115548 20 198 0.0 1.6 0.00 0.03 0.00 82 1008.7
20260510115046 20 198 0.0 0.0 0.00 0.03 0.00 81 1008.7
20260510114556 20 198 0.0 1.6 0.00 0.03 0.00 81 1008.8
20260510114046 20 198 0.0 1.6 0.00 0.03 0.00 81 1008.7
20260510113545 20 198 0.0 3.2 0.00 0.03 0.00 81 1008.7
20260510113051 20 198 0.0 3.2 0.00 0.03 0.00 81 1008.7
20260510112545 20 198 0.0 4.8 0.00 0.03 0.00 81 1008.7
20260510112044 20 198 1.6 4.8 0.00 0.03 0.00 80 1008.6
20260510111544 20 198 1.6 4.8 0.00 0.03 0.00 80 1008.5
20260510111045 20 190 1.6 4.8 0.00 0.03 0.00 80 1008.6
20260510110543 20 174 0.0 0.0 0.00 0.03 0.00 79 1008.7
20260510110050 20 174 0.0 4.8 0.00 0.03 0.00 79 1008.8
20260510105542 20 174 0.0 4.8 0.00 0.03 0.00 79 1008.7
20260510105041 20 171 0.0 4.8 0.00 0.03 0.00 79 1008.7
20260510104540 20 174 1.6 6.4 0.00 0.03 0.00 79 1008.8
20260510104040 20 204 3.2 6.4 0.00 0.03 0.00 79 1008.8
20260510103540 20 210 1.6 4.8 0.00 0.03 0.00 78 1008.9
20260510103045 20 202 0.0 3.2 0.00 0.03 0.00 78 1008.9
20260510102539 20 214 0.0 3.2 0.00 0.03 0.00 78 1008.9
20260510102038 21 213 0.0 3.2 0.00 0.03 0.00 78 1008.9
20260510101545 21 108 0.0 3.2 0.00 0.03 0.00 78 1009.0
20260510101038 21 108 0.0 3.2 0.00 0.03 0.00 77 1009.0
20260510100538 21 108 0.0 1.6 0.00 0.03 0.00 77 1009.1
20260510100047 21 89 0.0 1.6 0.00 0.03 0.00 77 1009.1
20260510095537 21 89 0.0 3.2 0.00 0.03 0.00 77 1009.1
20260510095040 21 89 0.0 3.2 0.00 0.03 0.00 77 1009.0
20260510094540 21 207 0.0 1.6 0.00 0.03 0.00 76 1008.9
20260510094033 21 207 0.0 0.0 0.00 0.03 0.00 76 1008.8
20260510093533 21 207 0.0 3.2 0.00 0.03 0.00 76 1008.7
20260510093037 21 207 0.0 3.2 0.00 0.03 0.00 76 1008.7
20260510092532 21 207 0.0 3.2 0.00 0.03 0.00 76 1008.6
20260510092031 21 207 0.0 3.2 0.00 0.03 0.00 75 1008.5
20260510091532 21 207 0.0 3.2 0.00 0.03 0.00 75 1008.7
20260510091031 21 207 0.0 3.2 0.00 0.03 0.00 75 1008.7
20260510090531 21 207 0.0 4.8 0.00 0.03 0.00 75 1008.6
20260510090031 21 160 1.6 4.8 0.00 0.03 0.00 75 1008.6
20260510085532 21 173 1.6 4.8 0.00 0.03 0.00 75 1008.6
20260510085029 21 174 0.0 1.6 0.00 0.03 0.00 75 1008.6
20260510084533 21 174 0.0 3.2 0.00 0.03 0.00 75 1008.6
20260510084028 21 174 0.0 3.2 0.00 0.03 0.00 75 1008.6
20260510083528 21 174 0.0 1.6 0.00 0.03 0.00 74 1008.5
20260510083027 21 174 0.0 1.6 0.00 0.03 0.00 74 1008.7
20260510082526 22 174 0.0 1.6 0.00 0.03 0.00 74 1008.6
20260510082025 22 174 0.0 1.6 0.00 0.03 0.00 74 1008.6
20260510081536 22 174 0.0 0.0 0.00 0.03 0.00 74 1008.5
20260510081025 22 174 0.0 3.2 0.00 0.03 0.00 73 1008.5
20260510080523 22 174 0.0 3.2 0.00 0.03 0.00 73 1008.4
20260510080038 22 174 0.0 3.2 0.00 0.03 0.00 73 1008.4
20260510075523 22 174 0.0 3.2 0.00 0.03 0.00 73 1008.4
20260510075022 22 169 0.0 3.2 0.00 0.03 0.00 72 1008.4
20260510074524 22 169 0.0 3.2 0.00 0.03 0.00 72 1008.4
20260510074019 22 169 0.0 4.8 0.00 0.03 0.00 72 1008.4
20260510073519 22 169 1.6 6.4 0.00 0.03 0.00 72 1008.4
20260510073033 22 169 1.6 4.8 0.00 0.03 0.00 71 1008.4
20260510072519 23 203 1.6 6.4 0.00 0.03 0.00 71 1008.3
20260510072018 23 199 0.0 6.4 0.00 0.03 0.00 71 1008.3
20260510071519 23 205 1.6 6.4 0.00 0.03 0.00 71 1008.3
20260510071017 23 160 3.2 6.4 0.00 0.03 0.00 71 1008.3
20260510070516 23 183 1.6 8.0 0.00 0.03 0.00 71 1008.3
20260510070016 23 157 3.2 9.7 0.00 0.03 0.00 71 1008.4
20260510065617 23 163 1.6 9.7 0.00 0.03 0.00 71 1008.3
20260510065017 23 180 1.6 8.0 0.00 0.03 0.00 71 1008.4
20260510064514 23 202 1.6 8.0 0.00 0.03 0.00 71 1008.3
20260510064015 23 165 3.2 8.0 0.00 0.03 0.00 71 1008.3
20260510063513 23 152 3.2 9.7 0.00 0.03 0.00 71 1008.3
20260510063016 23 200 1.6 11.3 0.00 0.03 0.00 71 1008.4
20260510062512 23 162 1.6 11.3 0.00 0.03 0.00 71 1008.4
20260510062011 23 140 4.8 12.9 0.00 0.03 0.00 71 1008.3
20260510061511 23 188 4.8 12.9 0.00 0.03 0.00 71 1008.4
20260510061010 23 164 1.6 9.7 0.00 0.03 0.00 71 1008.4
20260510060511 23 139 4.8 9.7 0.00 0.03 0.00 71 1008.4
20260510060022 24 150 0.0 8.0 0.00 0.03 0.00 71 1008.4
20260510055517 24 159 3.2 8.0 0.00 0.03 0.00 71 1008.5
20260510055010 24 195 0.0 1.6 0.00 0.03 0.00 71 1008.4
20260510054510 24 195 0.0 3.2 0.00 0.03 0.00 70 1008.4
20260510054007 24 195 0.0 4.8 0.00 0.03 0.00 70 1008.4
20260510053507 24 150 0.0 3.2 0.00 0.03 0.00 70 1008.4
20260510053005 24 113 0.0 4.8 0.00 0.03 0.00 70 1008.3
20260510052505 24 161 0.0 4.8 0.00 0.03 0.00 70 1008.2
20260510052004 25 161 0.0 11.3 0.00 0.03 0.00 70 1008.2
20260510051504 25 161 1.6 11.3 0.00 0.03 0.00 69 1008.1
20260510051002 25 170 4.8 9.7 0.00 0.03 0.00 69 1008.1
20260510050502 25 177 4.8 9.7 0.00 0.03 0.00 69 1008.0
20260510050001 25 163 3.2 11.3 0.00 0.03 0.00 69 1008.0
20260510045600 25 167 4.8 11.3 0.00 0.03 0.03 69 1007.9
20260510045100 25 175 4.8 12.9 0.00 0.03 0.03 68 1007.9
20260510044600 25 156 3.2 12.9 0.00 0.03 0.03 68 1007.8
20260510044102 25 204 3.2 12.9 0.00 0.03 0.03 68 1007.8
20260510043559 25 174 3.2 12.9 0.00 0.03 0.03 67 1007.8
20260510043101 26 157 4.8 12.9 0.00 0.03 0.03 67 1007.9
20260510042600 26 140 1.6 9.7 0.00 0.03 0.03 67 1007.9
20260510042101 26 167 3.2 9.7 0.00 0.03 0.03 67 1007.9
20260510041609 26 175 1.6 9.7 0.00 0.03 0.03 67 1007.9
20260510041059 26 148 1.6 6.4 0.00 0.03 0.03 67 1007.9
20260510040559 26 94 1.6 6.4 0.00 0.03 0.03 67 1007.8
20260510040113 26 58 0.0 3.2 0.00 0.03 0.03 67 1007.9
20260510035558 26 171 0.0 6.4 0.00 0.03 0.03 67 1007.8
20260510035100 26 155 1.6 6.4 0.00 0.03 0.03 67 1007.7
20260510034558 26 198 1.6 6.4 0.00 0.03 0.03 66 1007.6
20260510034058 26 64 0.0 1.6 0.00 0.03 0.03 66 1007.4
20260510033557 26 64 0.0 1.6 0.00 0.03 0.03 66 1007.3
20260510033104 26 149 0.0 3.2 0.00 0.03 0.03 66 1007.3
20260510032600 26 149 0.0 3.2 0.00 0.03 0.03 66 1007.2
20260510032057 26 145 0.0 3.2 0.00 0.03 0.03 66 1007.2
20260510031603 26 175 0.0 3.2 0.00 0.03 0.03 65 1007.1
20260510031057 27 175 0.0 3.2 0.00 0.03 0.03 65 1007.2
20260510030558 27 122 0.0 4.8 0.00 0.03 0.03 66 1007.1
20260510025556 27 152 0.0 3.2 0.00 0.03 0.03 66 1007.0
20260510025058 27 90 0.0 3.2 0.00 0.03 0.03 66 1006.9
20260510024557 27 69 0.0 3.2 0.00 0.03 0.03 66 1006.9
20260510024055 27 69 0.0 3.2 0.00 0.03 0.03 65 1006.9
20260510023555 27 69 0.0 1.6 0.00 0.03 0.03 65 1006.8
20260510023055 27 69 0.0 1.6 0.00 0.03 0.03 65 1006.7
20260510022559 27 69 0.0 3.2 0.00 0.03 0.03 64 1006.7
20260510022055 27 69 0.0 3.2 0.00 0.03 0.03 64 1006.7
20260510021645 27 69 0.0 3.2 0.00 0.03 0.03 64 1006.7
20260510021055 27 69 0.0 3.2 0.00 0.03 0.03 63 1006.6
20260510020555 27 69 0.0 3.2 0.00 0.03 0.03 62 1006.6
20260510020100 27 69 0.0 3.2 0.00 0.03 0.03 61 1006.6
20260510015556 28 39 0.0 3.2 0.00 0.03 0.03 61 1006.4
20260510015056 28 80 0.0 4.8 0.00 0.03 0.03 60 1006.4
20260510014559 28 81 1.6 4.8 0.00 0.03 0.03 59 1006.3
20260510014055 28 154 0.0 3.2 0.00 0.03 0.03 58 1006.2
20260510013555 28 154 0.0 3.2 0.00 0.03 0.03 57 1006.1
20260510013102 28 154 0.0 3.2 0.00 0.03 0.03 56 1006.1
20260510012553 28 154 0.0 3.2 0.00 0.03 0.03 55 1006.0
20260510012054 29 190 0.0 3.2 0.00 0.03 0.03 54 1005.9
20260510011553 29 204 0.0 9.7 0.00 0.03 0.03 54 1005.9
20260510011054 29 109 1.6 8.0 0.00 0.03 0.03 53 1005.9
20260510010553 30 115 1.6 4.8 0.00 0.03 0.03 52 1005.8
20260510010058 30 44 1.6 4.8 0.00 0.03 0.03 52 1005.8
20260510005554 30 155 1.6 6.4 0.00 0.03 0.03 52 1005.7
20260510005052 30 117 0.0 8.0 0.00 0.03 0.03 51 1005.7
20260510004552 30 135 1.6 14.5 0.00 0.03 0.03 49 1005.7
20260510004052 30 157 4.8 14.5 0.00 0.03 0.03 50 1005.6
20260510003553 30 124 1.6 12.9 0.00 0.03 0.03 51 1005.6
20260510003052 31 186 3.2 16.1 0.00 0.03 0.03 50 1005.5
20260510002555 31 159 4.8 16.1 0.00 0.03 0.03 49 1005.4
20260510002051 31 152 3.2 11.3 0.00 0.03 0.03 49 1005.3
20260510001551 31 158 4.8 11.3 0.00 0.03 0.03 48 1005.3
20260510001051 31 69 1.6 9.7 0.00 0.03 0.03 47 1005.2
20260510000550 31 184 1.6 17.7 0.00 0.03 0.03 49 1005.1
20260510000051 31 225 1.6 17.7 0.00 0.03 0.03 49 1005.1
20260509235652 31 112 3.2 12.9 0.00 0.03 0.03 48 1005.0
20260509235049 32 169 4.8 12.9 0.00 0.03 0.03 48 1004.9
20260509234549 32 120 4.8 12.9 0.00 0.03 0.03 47 1004.8
20260509234049 32 163 6.4 17.7 0.00 0.03 0.03 48 1004.6
20260509233550 32 190 8.0 19.3 0.00 0.03 0.03 48 1004.7
20260509233048 32 184 8.0 19.3 0.00 0.03 0.03 48 1004.7
20260509232548 32 250 4.8 16.1 0.00 0.03 0.03 49 1004.6
20260509232048 32 149 9.7 16.1 0.00 0.03 0.03 48 1004.8
20260509231548 32 163 3.2 11.3 0.00 0.03 0.03 48 1005.0
20260509231045 32 157 1.6 11.3 0.00 0.03 0.03 49 1005.2
20260509230545 32 71 3.2 9.7 0.00 0.03 0.03 49 1005.2
20260509230048 32 165 3.2 9.7 0.00 0.03 0.03 49 1005.2
20260509225546 32 132 3.2 14.5 0.00 0.03 0.03 49 1005.2
20260509225043 32 118 4.8 14.5 0.00 0.03 0.03 49 1005.2
20260509224543 32 148 6.4 16.1 0.00 0.03 0.03 49 1005.3
20260509224044 32 159 4.8 16.1 0.00 0.03 0.03 49 1005.2
20260509223544 32 156 6.4 12.9 0.00 0.03 0.03 49 1005.2
20260509223044 32 222 4.8 12.9 0.00 0.03 0.03 49 1005.1
20260509222545 32 204 1.6 14.5 0.00 0.03 0.03 49 1005.0
20260509222043 32 167 6.4 14.5 0.00 0.03 0.03 49 1005.0
20260509221543 32 160 6.4 16.1 0.00 0.03 0.03 49 1005.1
20260509221042 32 249 4.8 14.5 0.00 0.03 0.03 48 1005.0
20260509220542 32 236 1.6 12.9 0.00 0.03 0.03 48 1005.0
20260509220043 33 196 6.4 16.1 0.00 0.03 0.03 47 1005.1
20260509215542 33 237 4.8 17.7 0.00 0.03 0.03 48 1005.2
20260509215042 32 240 3.2 9.7 0.00 0.03 0.03 49 1005.2
20260509214542 32 142 1.6 12.9 0.00 0.03 0.03 49 1005.2
20260509214040 32 132 4.8 12.9 0.00 0.03 0.03 49 1005.3
20260509213541 32 181 3.2 9.7 0.00 0.03 0.03 50 1005.2
20260509213043 32 102 3.2 12.9 0.00 0.03 0.03 51 1005.4
20260509212539 32 186 4.8 14.5 0.00 0.03 0.03 49 1005.4
20260509212039 32 148 1.6 14.5 0.00 0.03 0.03 48 1005.4
20260509211539 32 88 4.8 16.1 0.00 0.03 0.03 49 1005.5
20260509211038 32 165 6.4 16.1 0.00 0.03 0.03 49 1005.5
20260509210540 33 259 4.8 12.9 0.00 0.03 0.03 48 1005.6
20260509210044 33 255 3.2 14.5 0.00 0.03 0.03 48 1005.7
20260509205537 32 277 6.4 17.7 0.00 0.03 0.03 49 1005.7
20260509205036 32 213 8.0 17.7 0.00 0.03 0.03 49 1005.7
20260509204535 32 182 4.8 12.9 0.00 0.03 0.03 48 1005.8
20260509204034 32 275 4.8 14.5 0.00 0.03 0.03 49 1005.9
20260509203533 32 148 4.8 16.1 0.00 0.03 0.03 49 1006.1
20260509203034 32 184 4.8 16.1 0.00 0.03 0.03 48 1006.1
20260509202537 33 208 4.8 12.9 0.00 0.03 0.03 47 1006.2
20260509202035 32 211 4.8 16.1 0.00 0.03 0.03 45 1006.3
20260509201533 32 226 4.8 16.1 0.00 0.03 0.03 47 1006.3
20260509201029 32 230 6.4 14.5 0.00 0.03 0.03 49 1006.4
20260509200532 31 207 1.6 12.9 0.00 0.03 0.03 51 1006.5
20260509200028 32 153 4.8 12.9 0.00 0.03 0.03 52 1006.6
20260509195529 32 178 3.2 17.7 0.00 0.03 0.03 49 1006.7
20260509195025 32 233 8.0 17.7 0.00 0.03 0.03 48 1006.8
20260509194537 33 264 4.8 11.3 0.00 0.03 0.03 48 1006.9
20260509194026 32 192 1.6 14.5 0.00 0.03 0.03 53 1007.0
20260509193527 32 144 6.4 14.5 0.00 0.03 0.03 52 1007.2
20260509193025 32 225 8.0 16.1 0.00 0.03 0.03 51 1007.3
20260509192524 31 154 1.6 16.1 0.00 0.03 0.03 54 1007.3
20260509192026 31 318 6.4 14.5 0.00 0.03 0.03 55 1007.4
20260509191525 31 99 3.2 14.5 0.00 0.03 0.03 56 1007.4
20260509191025 30 148 4.8 9.7 0.00 0.03 0.03 55 1007.4
20260509190525 31 215 4.8 14.5 0.00 0.03 0.03 54 1007.5
20260509190026 31 274 6.4 14.5 0.00 0.03 0.03 54 1007.5
20260509185524 31 305 1.6 17.7 0.00 0.03 0.03 54 1007.5
20260509185022 32 262 6.4 19.3 0.00 0.03 0.03 53 1007.5
20260509184527 31 259 9.7 19.3 0.00 0.03 0.03 54 1007.6
20260509184020 31 302 1.6 14.5 0.00 0.03 0.03 56 1007.6
20260509183520 31 154 3.2 14.5 0.00 0.03 0.03 55 1007.7
20260509183020 31 219 4.8 14.5 0.00 0.03 0.03 55 1007.8
20260509182518 31 258 6.4 14.5 0.00 0.03 0.03 57 1007.9
20260509182018 30 130 4.8 16.1 0.00 0.03 0.03 58 1007.9
20260509181518 30 235 8.0 16.1 0.00 0.03 0.03 58 1007.9
20260509181018 30 265 11.3 16.1 0.00 0.03 0.03 61 1008.0
20260509180518 30 155 3.2 11.3 0.00 0.03 0.03 60 1008.1
20260509180016 29 153 4.8 12.9 0.00 0.03 0.03 62 1008.2
20260509175515 29 150 1.6 14.5 0.00 0.03 0.03 61 1008.2
20260509175015 29 263 4.8 14.5 0.00 0.03 0.03 62 1008.1
20260509174515 30 144 8.0 16.1 0.00 0.03 0.03 61 1008.3
20260509174014 30 233 1.6 11.3 0.00 0.03 0.03 65 1008.3
20260509173512 29 281 3.2 17.7 0.00 0.03 0.03 64 1008.4
20260509173015 29 229 6.4 17.7 0.00 0.03 0.03 65 1008.5
20260509172513 28 214 6.4 16.1 0.00 0.03 0.03 67 1008.4
20260509172010 28 220 1.6 16.1 0.00 0.03 0.03 68 1008.5
20260509171509 28 273 6.4 14.5 0.00 0.03 0.03 69 1008.5
20260509171008 28 242 4.8 17.7 0.00 0.03 0.03 69 1008.6
20260509170507 28 242 4.8 17.7 0.00 0.03 0.03 70 1008.7
20260509170007 28 243 8.0 16.1 0.00 0.03 0.03 70 1008.7
20260509165504 28 252 4.8 14.5 0.00 0.03 0.03 72 1008.7
20260509165007 27 327 6.4 14.5 0.00 0.03 0.03 72 1008.7
20260509164502 27 296 8.0 14.5 0.00 0.03 0.03 72 1008.7
20260509164001 27 220 8.0 19.3 0.00 0.03 0.03 72 1008.7
20260509163559 27 185 6.4 19.3 0.00 0.03 0.03 73 1008.6
20260509163104 27 235 8.0 19.3 0.00 0.03 0.03 72 1008.5
20260509162558 27 251 8.0 19.3 0.00 0.03 0.03 71 1008.4
20260509162057 27 243 9.7 19.3 0.00 0.03 0.03 71 1008.4
20260509161603 26 258 3.2 14.5 0.00 0.03 0.03 74 1008.3
20260509161053 26 259 8.0 14.5 0.00 0.03 0.03 74 1008.5
20260509160552 26 227 6.4 17.7 0.00 0.03 0.03 77 1008.4
20260509160051 26 207 6.4 19.3 0.00 0.03 0.03 78 1008.5
20260509155549 26 222 4.8 19.3 0.00 0.03 0.03 79 1008.6
20260509155048 25 225 6.4 12.9 0.00 0.03 0.03 80 1008.6
20260509154550 25 223 4.8 14.5 0.00 0.03 0.03 84 1008.9
20260509154045 25 255 6.4 14.5 0.00 0.03 0.03 87 1008.9